User: anonymous   Login
Location: Vancouver
(49.2500°N, 123.1330°W)
Time: 09:35:23
(UTC-07:00)
Language:

Iridium 35 - Orbit

View from above orbital plane
View from above orbital plane
View from above satellite
View from above satellite

Ground track
Ground track

The orbit data is extracted from the following two-line orbital elements,

1 24966U 97056B   17147.90217123 -.00000029 +00000-0 -17557-4 0  9991
2 24966 086.3934 327.1783 0002079 087.8494 272.2940 14.34217151029344
Epoch (UTC): 27 May 2017 21:39:07
Eccentricity: 0.0002079
inclination: 86.3934°
perigee height: 776 km
apogee height: 779 km
right ascension of ascending node: 327.1783°
argument of perigee: 87.8494°
revolutions per day: 14.34217151
mean anomaly at epoch: 272.2940°
orbit number at epoch: 2934

The dashed part of the orbit path shows where the satellite is in the earth's shadow,  

DLR